DELTA 1 DEB, 26834

Orbit data source: Space-Track

DELTA 1 DEB, 26834 is space debris in SSO originally from a launch on Thu, 12 Jun 1975 UTC launched from the Air Force Western Test Range (AFWTR). Debris objects in space refer to the collection of defunct objects orbiting the Earth. Examples of debris include non-operational satellites, rocket bodies, and fragments generated from explosions, collisions, or faulty payload assembly.

Loading next visibility...
Identifier
26834, 1975-052KN
Orbit
SSO
Country
Flag of USUS
Related business
Manufacturer
Unknown
Mission
Spacecraft
Bus & Motor
Unknown
Mass
Unknown
Launch date (UTC)
1975-06-12 (51 years ago)
Launch vehicle
Unknown
Launch site
Air Force Western Test Range (AFWTR)
Object type
Payload
Rocket body
Debris
Shape & HBR
Unknown shape, 0.1 m
Radar Cross Section
Medium (>0.1 m² and <1 m²)

Expand to show TLE details & history
Last TLE update: 2 days ago

TLE from 2 days ago
0 DELTA 1 DEB
1 26834U 75052KN  26167.31763902 -.00000022  00000-0  39038-4 0  9997
2 26834  99.7134 192.9883 0057556  73.9653 309.2860 13.32960644228119
Epoch: 2026-06-16T07:37Z
TLE epoch observation values (Epoch: 2026-06-16T07:37:24.011Z)
Latitude
22.41106°
Longitude
170.01965°
Altitude
1,110.97 km
Speed
7.312 km/s
True Right ascension
12h 35m 50s
True Declination
22° 17' 45"
Sunlit
Object was in daylight at epoch
Visualization orbit readout
Latitude
Unknown
Longitude
Unknown
Altitude
Unknown
Speed
Unknown
Apparent Right ascension
Unknown
Apparent Declination
Unknown
Sunlit
N/A
Visualization observer readout
Local Sidereal Time
21:51:33
Azimuth
Unknown
Elevation
Unknown
Doppler factor
Unknown
Orbital elements
Apogee altitude
1,176.172 km
Perigee altitude
1,089.711 km
Semi-major axis
7,511.078 km
Eccentricity
0.00576
Inclination
99.7134°
RAAN
192.9883°
Arg. of periapsis
73.9653°
True anomaly
308.77319°
Mean anomaly
309.286°
Eccentric anomaly
309.02983°
Mean motion
3.33419 °/min
Orbital period
107.97 mins
BSTAR
0.000039038
Loading maneuver chart data...
Computing Atmospheric mass density...
Loading historical data...
Loading historical data...
Loading historical data...
Loading historical data...
Loading historical data...
Loading historical data...
Loading historical data...

Documentation

Showing up to 5 results
|